• In Österreich
  • Länderverzeichnis
  • Für 7 Tage
  • Wassertemperatur
  • Satellitenkarten
  • Wetterkarte
  • News
  • Widgets
  • user-avatar
    Anmelden

    Stündliche Wetter Salta

    Heute, 17 Dezember, Sonntag

    Zeit Temperatur Niederschläge Wind Luftdruck Luftfeuchtigkeit
    00:00 +25°C° 0 mm 1 m/S 646 mmHg 62%
    01:00 +25°C° 0 mm 1 m/S 646 mmHg 62%
    02:00 +25°C° 0 mm 1 m/S 646 mmHg 59%
    03:00 +25°C° 0 mm 1 m/S 646 mmHg 59%
    04:00 +24°C° 0 mm 1 m/S 646 mmHg 58%
    05:00 +24°C° 0 mm 1 m/S 646 mmHg 57%
    06:00 +26°C° 0 mm 2 m/S 647 mmHg 50%
    07:00 +29°C° 0 mm 2 m/S 649 mmHg 44%
    08:00 +31°C° 0 mm 2 m/S 651 mmHg 37%
    09:00 +33°C° 0 mm 4 m/S 652 mmHg 36%
    10:00 +34°C° 0 mm 5 m/S 653 mmHg 35%
    11:00 +35°C° 0 mm 7 m/S 654 mmHg 34%
    12:00 +33°C° 1,1 mm 6 m/S 654 mmHg 41%
    13:00 +32°C° 1,1 mm 6 m/S 653 mmHg 49%
    14:00 +29°C° 1,1 mm 6 m/S 653 mmHg 56%
    15:00 +28°C° 0,4 mm 5 m/S 653 mmHg 58%
    16:00 +27°C° 0,4 mm 5 m/S 653 mmHg 60%
    17:00 +26°C° 0,4 mm 4 m/S 652 mmHg 62%
    18:00 +25°C° 0,1 mm 4 m/S 653 mmHg 65%
    19:00 +22°C° 0,1 mm 3 m/S 653 mmHg 69%
    20:00 +21°C° 0,1 mm 2 m/S 653 mmHg 72%
    21:00 +21°C° 0,1 mm 2 m/S 654 mmHg 73%
    22:00 +20°C° 0,1 mm 2 m/S 654 mmHg 74%
    23:00 +20°C° 0,1 mm 2 m/S 655 mmHg 75%

    Morgen, 18 Dezember, Montag

    Zeit Temperatur Niederschläge Wind Luftdruck Luftfeuchtigkeit
    00:00 +19°C° 0,4 mm 2 m/S 655 mmHg 77%
    01:00 +19°C° 0,4 mm 2 m/S 654 mmHg 80%
    02:00 +18°C° 0,4 mm 2 m/S 654 mmHg 83%
    03:00 +18°C° 0,1 mm 2 m/S 654 mmHg 82%
    04:00 +19°C° 0,1 mm 1 m/S 654 mmHg 81%
    05:00 +18°C° 0,1 mm 1 m/S 653 mmHg 80%
    06:00 +19°C° 0 mm 1 m/S 654 mmHg 75%
    07:00 +20°C° 0 mm 1 m/S 654 mmHg 70%
    08:00 +21°C° 0 mm 1 m/S 655 mmHg 65%
    09:00 +22°C° 0,5 mm 1 m/S 655 mmHg 61%
    10:00 +23°C° 0,5 mm 2 m/S 655 mmHg 58%
    11:00 +25°C° 0,5 mm 2 m/S 655 mmHg 54%
    12:00 +25°C° 0,7 mm 2 m/S 655 mmHg 55%
    13:00 +25°C° 0,7 mm 1 m/S 654 mmHg 56%
    14:00 +25°C° 0,7 mm 1 m/S 654 mmHg 58%
    15:00 +25°C° 0,1 mm 1 m/S 653 mmHg 57%
    16:00 +25°C° 0,1 mm 1 m/S 653 mmHg 56%
    17:00 +25°C° 0,1 mm 2 m/S 652 mmHg 55%
    18:00 +24°C° 0,1 mm 1 m/S 652 mmHg 60%
    19:00 +23°C° 0,1 mm 1 m/S 652 mmHg 64%
    20:00 +22°C° 0,1 mm 1 m/S 652 mmHg 68%
    21:00 +21°C° 0,1 mm 1 m/S 652 mmHg 70%
    22:00 +21°C° 0,1 mm 1 m/S 652 mmHg 71%
    23:00 +21°C° 0,1 mm 1 m/S 652 mmHg 73%

    übermorgen, 19 Dezember, Dienstag

    Zeit Temperatur Niederschläge Wind Luftdruck Luftfeuchtigkeit
    00:00 +20°C° 0 mm 1 m/S 652 mmHg 74%
    01:00 +20°C° 0 mm 1 m/S 652 mmHg 76%
    02:00 +20°C° 0 mm 1 m/S 651 mmHg 78%
    03:00 +20°C° 0 mm 1 m/S 651 mmHg 79%
    04:00 +19°C° 0 mm 1 m/S 651 mmHg 80%
    05:00 +19°C° 0 mm 1 m/S 651 mmHg 81%
    06:00 +21°C° 0 mm 1 m/S 651 mmHg 74%
    07:00 +23°C° 0 mm 1 m/S 652 mmHg 67%
    08:00 +24°C° 0 mm 1 m/S 653 mmHg 60%
    09:00 +26°C° 0 mm 2 m/S 653 mmHg 56%
    10:00 +27°C° 0 mm 2 m/S 653 mmHg 52%
    11:00 +29°C° 0 mm 3 m/S 653 mmHg 48%
    12:00 +29°C° 0,2 mm 3 m/S 653 mmHg 47%
    13:00 +30°C° 0,2 mm 3 m/S 652 mmHg 46%
    14:00 +31°C° 0,2 mm 3 m/S 652 mmHg 45%
    15:00 +30°C° 0,7 mm 3 m/S 651 mmHg 48%
    16:00 +29°C° 0,7 mm 3 m/S 651 mmHg 51%
    17:00 +29°C° 0,7 mm 3 m/S 650 mmHg 54%
    18:00 +27°C° 1,4 mm 2 m/S 650 mmHg 60%
    19:00 +25°C° 1,4 mm 1 m/S 650 mmHg 67%
    20:00 +24°C° 1,4 mm 1 m/S 650 mmHg 73%
    21:00 +23°C° 0,4 mm 1 m/S 651 mmHg 74%
    22:00 +23°C° 0,4 mm 1 m/S 651 mmHg 76%
    23:00 +23°C° 0,4 mm 1 m/S 651 mmHg 77%

    20 Dezember, Mittwoch

    Zeit Temperatur Niederschläge Wind Luftdruck Luftfeuchtigkeit
    00:00 +22°C° 0,2 mm 1 m/S 651 mmHg 78%
    01:00 +22°C° 0,2 mm 1 m/S 650 mmHg 79%
    02:00 +22°C° 0,2 mm 1 m/S 650 mmHg 80%
    03:00 +22°C° 0,2 mm 1 m/S 650 mmHg 80%
    04:00 +22°C° 0,2 mm 1 m/S 650 mmHg 81%
    05:00 +21°C° 0,2 mm 1 m/S 650 mmHg 81%
    06:00 +22°C° 0,5 mm 1 m/S 650 mmHg 78%
    07:00 +23°C° 0,5 mm 1 m/S 651 mmHg 75%
    08:00 +24°C° 0,5 mm 1 m/S 651 mmHg 72%
    09:00 +25°C° 0,8 mm 1 m/S 651 mmHg 67%
    10:00 +26°C° 0,8 mm 1 m/S 651 mmHg 63%
    11:00 +27°C° 0,8 mm 2 m/S 652 mmHg 59%
    12:00 +28°C° 0,5 mm 2 m/S 651 mmHg 57%
    13:00 +29°C° 0,5 mm 2 m/S 650 mmHg 56%
    14:00 +29°C° 0,5 mm 3 m/S 650 mmHg 54%
    15:00 +29°C° 0,6 mm 3 m/S 649 mmHg 57%
    16:00 +28°C° 0,6 mm 3 m/S 649 mmHg 59%
    17:00 +27°C° 0,6 mm 2 m/S 648 mmHg 62%
    18:00 +26°C° 0,2 mm 2 m/S 648 mmHg 67%
    19:00 +25°C° 0,2 mm 1 m/S 648 mmHg 72%
    20:00 +23°C° 0,2 mm 1 m/S 648 mmHg 77%
    21:00 +21°C° 0,1 mm 0 m/S 648 mmHg 78%
    22:00 +21°C° 0,1 mm 0 m/S 649 mmHg 78%
    23:00 +21°C° 0,1 mm 0 m/S 649 mmHg 78%

    21 Dezember, Donnerstag

    Zeit Temperatur Niederschläge Wind Luftdruck Luftfeuchtigkeit
    00:00 +20°C° 0,2 mm 0 m/S 649 mmHg 78%
    01:00 +20°C° 0,2 mm 0 m/S 648 mmHg 79%
    02:00 +22°C° 0,2 mm 1 m/S 648 mmHg 79%
    03:00 +22°C° 0,1 mm 1 m/S 648 mmHg 79%
    04:00 +22°C° 0,1 mm 1 m/S 648 mmHg 79%
    05:00 +21°C° 0,1 mm 1 m/S 647 mmHg 80%
    06:00 +23°C° 0,2 mm 1 m/S 648 mmHg 75%
    07:00 +24°C° 0,2 mm 1 m/S 649 mmHg 70%
    08:00 +25°C° 0,2 mm 1 m/S 650 mmHg 65%
    09:00 +27°C° 0 mm 1 m/S 650 mmHg 60%
    10:00 +28°C° 0 mm 2 m/S 650 mmHg 55%
    11:00 +29°C° 0 mm 2 m/S 650 mmHg 49%
    12:00 +30°C° 0,2 mm 3 m/S 650 mmHg 49%
    13:00 +30°C° 0,2 mm 3 m/S 649 mmHg 48%
    14:00 +31°C° 0,2 mm 3 m/S 649 mmHg 48%
    15:00 +30°C° 0,4 mm 3 m/S 648 mmHg 51%
    16:00 +30°C° 0,4 mm 3 m/S 648 mmHg 54%
    17:00 +29°C° 0,4 mm 3 m/S 647 mmHg 57%
    18:00 +27°C° 1,2 mm 2 m/S 647 mmHg 65%
    19:00 +25°C° 1,2 mm 1 m/S 647 mmHg 74%
    20:00 +24°C° 1,2 mm 1 m/S 647 mmHg 82%
    21:00 +23°C° 0,7 mm 1 m/S 648 mmHg 83%
    22:00 +23°C° 0,7 mm 1 m/S 648 mmHg 84%
    23:00 +21°C° 0,7 mm 0 m/S 648 mmHg 84%

    22 Dezember, Freitag

    Zeit Temperatur Niederschläge Wind Luftdruck Luftfeuchtigkeit
    00:00 +20°C° 0,1 mm 0 m/S 648 mmHg 85%
    01:00 +20°C° 0,1 mm 0 m/S 647 mmHg 85%
    02:00 +20°C° 0,1 mm 0 m/S 647 mmHg 85%
    03:00 +20°C° 0 mm 0 m/S 647 mmHg 84%
    04:00 +19°C° 0 mm 0 m/S 647 mmHg 83%
    05:00 +19°C° 0 mm 0 m/S 646 mmHg 82%
    06:00 +23°C° 0 mm 1 m/S 647 mmHg 76%
    07:00 +25°C° 0 mm 1 m/S 648 mmHg 69%
    08:00 +26°C° 0 mm 1 m/S 648 mmHg 63%
    09:00 +28°C° 0 mm 1 m/S 648 mmHg 58%
    10:00 +29°C° 0 mm 2 m/S 648 mmHg 53%
    11:00 +31°C° 0 mm 2 m/S 648 mmHg 48%
    12:00 +31°C° 0,2 mm 3 m/S 648 mmHg 48%
    13:00 +31°C° 0,2 mm 3 m/S 647 mmHg 48%
    14:00 +33°C° 0,2 mm 3 m/S 647 mmHg 47%
    15:00 +31°C° 0,4 mm 3 m/S 646 mmHg 51%
    16:00 +30°C° 0,4 mm 3 m/S 646 mmHg 54%
    17:00 +29°C° 0,4 mm 3 m/S 645 mmHg 57%
    18:00 +28°C° 0,8 mm 2 m/S 646 mmHg 65%
    19:00 +26°C° 0,8 mm 2 m/S 646 mmHg 72%
    20:00 +25°C° 0,8 mm 1 m/S 646 mmHg 80%
    21:00 +25°C° 1,4 mm 1 m/S 647 mmHg 81%
    22:00 +24°C° 1,4 mm 1 m/S 647 mmHg 82%
    23:00 +22°C° 1,4 mm 0 m/S 648 mmHg 84%
    Mehr zeigen